[[{"header":{"parameterUnit":"m.s-1","parameterCategory":1,"la1":30.2991,"la2":30.254,"lo1":-89.0895,"lo2":-89.0444,"dy":0.0017,"dx":0.0017,"nx":28,"ny":28,"refTime":"2024-10-01T09:00:00:Z","depth":0,"parameterNumber":2,"parameterNumberName":"U-component_of_WINDS"},"data":[0,0,0,0,0,0,0,0,0,0,0,0,0,0,0,0,0,0,0,0,0,0,0,0,0,0,0,0,0,0,0,0,0,0,0,0,0,0,0,0,0,0,0,0,0,0,0,0,0,0,0,0,0,0,0,0,0,0,0.7227,0.7227,0,0.7208,0.7207,0.7207,0.7204,0.7204,0.7204,0.7204,0.7182,0.7181,0.718,0,0,0,0,0,0,0,0,0,0,0,0,0,0.7262,0.7261,0.7227,0.7227,0.7227,0.7208,0.7207,0.7207,0.7204,0.7204,0.7204,0.7204,0.7182,0.7181,0.718,0,0,0,0,0,0,0,0,0,0,0,0,0,0.7245,0.7261,0.7227,0.7223,0.7222,0.7208,0.7207,0.7207,0.7204,0.7204,0.7204,0.7204,0.7183,0.7181,0.718,0.7168,0,0,0.7177,0.7176,0,0,0,0,0,0,0,0,0.7246,0.7243,0.7224,0.7223,0.7223,0.7208,0.7211,0.7194,0.7204,0.7211,0.7204,0.7205,0.719,0.7189,0.7184,0.7167,0.7166,0.7177,0.7176,0.7175,0.7175,0,0,0,0,0,0,0,0.7247,0.7244,0.7219,0.7224,0.7223,0.7222,0.722,0.7208,0.7199,0.721,0.721,0.7208,0.719,0.7185,0.7184,0.7166,0.7177,0.7176,0.7175,0.7175,0.7138,0.7137,0,0,0,0,0,0,0.7249,0.7245,0.722,0.7219,0.7235,0.7221,0.7219,0.7213,0.7199,0.7198,0.7207,0.7208,0.7187,0.7185,0.7183,0.7168,0.7176,0.7174,0.7174,0.7138,0.7138,0.7137,0,0,0,0,0,0,0.725,0.7247,0.7221,0.7232,0.7229,0.722,0.7213,0.7212,0.7207,0.7197,0.7196,0.7204,0.7187,0.7185,0.7172,0.7167,0.7174,0.7173,0.7138,0.7138,0.7137,0.7137,0,0,0,0,0,0,0.7251,0.7247,0.7242,0.7232,0.7228,0.721,0.7213,0.7212,0.7206,0.7206,0.7194,0.7192,0.7187,0.7174,0.7171,0.7165,0.7172,0.7139,0.7138,0.7137,0.7137,0.7137,0.7136,0,0,0,0,0,0.7252,0.7243,0.7242,0.7239,0.7222,0.721,0.7208,0.7203,0.7205,0.72,0.7194,0.7193,0.7168,0.7172,0.7169,0.7163,0.7139,0.7138,0.7138,0.7138,0.7137,0.7136,0,0,0,0,0,0,0.7252,0.7241,0.724,0.7227,0.722,0.721,0.7203,0.7202,0.7193,0.7193,0.7187,0.7185,0.7172,0.7167,0.7172,0.7151,0.7154,0.7152,0.7155,0.7154,0.7153,0.7154,0.7171,0,0,0,0,0,0.725,0.7242,0.7233,0.7222,0.7219,0.7212,0.7206,0.7203,0.7195,0.7191,0.7184,0.7176,0.7166,0.716,0.715,0.7137,0.7134,0.7132,0.7131,0.713,0.7129,0.7122,0.712,0.7135,0.7135,0.7135,0,0,0.7247,0.724,0.7235,0.7222,0.7216,0.7207,0.7209,0.7199,0.7193,0.719,0.7177,0.7172,0.7162,0.7149,0.7143,0.7144,0.7124,0.7129,0.7129,0.7128,0.7121,0.7119,0.7118,0.7135,0.7135,0.7135,0,0,0.7236,0.723,0.7221,0.7215,0.7206,0.7201,0.7199,0.719,0.7186,0.7174,0.7172,0.7164,0.7148,0.7141,0.7135,0.7123,0.7122,0.7121,0.7116,0.7109,0.7108,0.7107,0.7103,0.7101,0.7119,0.7119,0.7119,0,0.7232,0.7219,0.7216,0.7206,0.7201,0.7199,0.719,0.7184,0.7172,0.7168,0.717,0.715,0.7143,0.7129,0.7126,0.7122,0.7119,0.7121,0.7109,0.7108,0.7106,0.7102,0.7101,0.7119,0.7119,0.7119,0.7119,0,0.7215,0.7206,0.72,0.719,0.7183,0.7174,0.7169,0.7163,0.7161,0.7157,0.7145,0.7137,0.7126,0.7123,0.7121,0.7108,0.7109,0.711,0.7112,0.7105,0.7101,0.7099,0.7119,0.7119,0.7119,0.7119,0,0,0.7202,0.7191,0.7188,0.7184,0.7175,0.7167,0.7158,0.7149,0.7144,0.7136,0.7128,0.7115,0.7116,0.711,0.7107,0.7101,0.7092,0.7102,0.7102,0.71,0.7078,0.7077,0.7076,0.7092,0.7091,0.7091,0.7079,0,0.7189,0.7173,0.717,0.7156,0.7148,0.7147,0.714,0.7133,0.7129,0.7121,0.7117,0.7108,0.711,0.7106,0.71,0.7095,0.7088,0.7096,0.7083,0.7083,0.7085,0.7074,0.7072,0.7061,0.7078,0.7077,0.7077,0,0.7172,0.7165,0.715,0.7143,0.7139,0.7132,0.7124,0.7117,0.7109,0.7107,0.7101,0.7099,0.7089,0.7093,0.708,0.7085,0.7081,0.7077,0.7077,0.7075,0.7079,0.707,0.7058,0.7056,0.7075,0.7075,0.7075,0,0.7163,0.715,0.7139,0.7136,0.7127,0.7122,0.7118,0.7111,0.7106,0.7099,0.7095,0.7087,0.7082,0.7075,0.7071,0.7074,0.7058,0.7061,0.7055,0.7055,0.7051,0.7051,0.7036,0.7049,0.7049,0.7049,0.7049,0,0.7148,0.7139,0.7135,0.7129,0.7119,0.7116,0.7106,0.7102,0.7097,0.7089,0.7088,0.7081,0.7077,0.7069,0.7066,0.7056,0.7053,0.7051,0.705,0.7051,0.7051,0.7046,0.7047,0.7049,0.7049,0.7049,0.7049,0,0.7136,0.7133,0.7122,0.7115,0.7113,0.7106,0.71,0.7094,0.7091,0.7082,0.7079,0.7074,0.7065,0.7061,0.705,0.7048,0.7036,0.7036,0.7038,0.7038,0.7032,0.7032,0.7013,0.701,0.7026,0.7026,0.7026,0,0.7126,0.712,0.7113,0.7108,0.7105,0.7097,0.7092,0.709,0.7085,0.7077,0.7071,0.7063,0.7056,0.7042,0.7037,0.7028,0.7028,0.7022,0.7026,0.7027,0.7027,0.7027,0.7026,0.702,0.702,0.702,0.702,0,0.711,0.7109,0.7102,0.7095,0.709,0.7084,0.7078,0.7074,0.7071,0.7065,0.7057,0.7052,0.7041,0.7032,0.7024,0.702,0.7019,0.7019,0.7017,0.7017,0.7018,0.7017,0.7035,0.7019,0.7019,0.7019,0.7019,0.7019,0.7098,0.7092,0.7087,0.7079,0.7075,0.707,0.7064,0.7061,0.7054,0.7046,0.7045,0.7036,0.703,0.7019,0.7014,0.7007,0.7008,0.7006,0.7005,0.7004,0.7003,0.7021,0.7006,0.7006,0.7006,0.7006,0.7006,0,0.708,0.7077,0.7071,0.7064,0.7058,0.706,0.7054,0.7049,0.7041,0.7036,0.7029,0.702,0.7012,0.7007,0.6999,0.6995,0.6994,0.6992,0.6992,0.6991,0.7003,0.7005,0.6993,0.6993,0.6993,0.6993,0.6993,0.6993,0.7071,0.7061,0.706,0.7048,0.7045,0.7037,0.7034,0.7029,0.7025,0.7015,0.7009,0.7006,0.7001,0.6993,0.6986,0.6985,0.6982,0.698,0.6979,0.6989,0.699,0.6992,0.6994,0.6979,0.6979,0.6968,0.6967,0.6967]},{"header":{"parameterUnit":"m.s-1","parameterCategory":1,"la1":30.2991,"la2":30.254,"lo1":-89.0895,"lo2":-89.0444,"dy":0.0017,"dx":0.0017,"nx":28,"ny":28,"refTime":"2024-10-01T09:00:00:Z","depth":0,"parameterNumber":3,"parameterNumberName":"V-component_of_WINDS"},"data":[0,0,0,0,0,0,0,0,0,0,0,0,0,0,0,0,0,0,0,0,0,0,0,0,0,0,0,0,0,0,0,0,0,0,0,0,0,0,0,0,0,0,0,0,0,0,0,0,0,0,0,0,0,0,0,0,0,0,-4.0426,-4.0428,0,-4.0534,-4.0535,-4.0537,-4.0543,-4.0542,-4.0541,-4.054,-4.0644,-4.0648,-4.0652,0,0,0,0,0,0,0,0,0,0,0,0,0,-4.0223,-4.0227,-4.0426,-4.0428,-4.0429,-4.0534,-4.0535,-4.0537,-4.0544,-4.0542,-4.0541,-4.0539,-4.0643,-4.0648,-4.0652,0,0,0,0,0,0,0,0,0,0,0,0,0,-4.0319,-4.0228,-4.0426,-4.0445,-4.0448,-4.0534,-4.0535,-4.0537,-4.0544,-4.0542,-4.054,-4.0539,-4.0642,-4.0647,-4.0653,-4.0725,0,0,-4.0671,-4.0673,0,0,0,0,0,0,0,0,-4.0313,-4.0326,-4.0441,-4.0444,-4.0447,-4.0524,-4.0502,-4.06,-4.0544,-4.0507,-4.054,-4.0538,-4.0605,-4.0614,-4.0638,-4.073,-4.0735,-4.0671,-4.0675,-4.0678,-4.0679,0,0,0,0,0,0,0,-4.0307,-4.0322,-4.0469,-4.0443,-4.0446,-4.0447,-4.0459,-4.0521,-4.0565,-4.051,-4.0511,-4.0524,-4.0607,-4.0632,-4.064,-4.0736,-4.0671,-4.0677,-4.068,-4.0682,-4.0896,-4.0898,0,0,0,0,0,0,-4.0297,-4.0316,-4.0465,-4.0472,-4.0375,-4.0452,-4.0465,-4.0501,-4.0564,-4.0572,-4.0525,-4.0524,-4.0623,-4.0634,-4.0644,-4.0735,-4.0677,-4.0683,-4.0686,-4.0894,-4.0896,-4.0899,0,0,0,0,0,0,-4.0293,-4.031,-4.0461,-4.0394,-4.0414,-4.0458,-4.0497,-4.0504,-4.053,-4.0576,-4.0583,-4.0544,-4.0622,-4.0636,-4.0706,-4.0739,-4.0686,-4.0691,-4.0891,-4.0895,-4.0898,-4.0916,0,0,0,0,0,0,-4.0287,-4.0309,-4.0337,-4.0395,-4.0417,-4.0522,-4.0499,-4.0507,-4.054,-4.054,-4.0595,-4.0602,-4.0622,-4.0697,-4.0712,-4.0746,-4.0696,-4.0888,-4.0893,-4.0897,-4.0913,-4.092,-4.0926,0,0,0,0,0,-4.0279,-4.0336,-4.0339,-4.0357,-4.0454,-4.0524,-4.0537,-4.0559,-4.0543,-4.0572,-4.0602,-4.0601,-4.0733,-4.0705,-4.0721,-4.0757,-4.0887,-4.0892,-4.0896,-4.091,-4.0919,-4.0926,0,0,0,0,0,0,-4.0278,-4.0344,-4.0347,-4.0425,-4.0469,-4.0525,-4.0562,-4.0567,-4.0615,-4.0612,-4.0637,-4.0649,-4.0719,-4.0745,-4.0712,-4.0832,-4.0808,-4.0816,-4.0813,-4.0821,-4.0827,-4.082,-4.07,0,0,0,0,0,-4.0288,-4.0341,-4.0394,-4.0458,-4.048,-4.0518,-4.0549,-4.0563,-4.0609,-4.0627,-4.0662,-4.0705,-4.0757,-4.079,-4.084,-4.0917,-4.093,-4.095,-4.0956,-4.0961,-4.0968,-4.1013,-4.1023,-4.0915,-4.0915,-4.0915,0,0,-4.0306,-4.0349,-4.038,-4.0459,-4.0495,-4.0548,-4.0533,-4.0589,-4.063,-4.0635,-4.0705,-4.0732,-4.0782,-4.0857,-4.0891,-4.088,-4.1001,-4.0967,-4.0971,-4.0975,-4.1019,-4.1029,-4.1038,-4.0918,-4.0917,-4.0917,0,0,-4.0369,-4.0406,-4.0464,-4.0501,-4.0557,-4.0582,-4.0596,-4.0652,-4.0671,-4.0742,-4.0748,-4.0795,-4.0883,-4.0919,-4.0949,-4.1028,-4.1029,-4.1043,-4.1077,-4.112,-4.1129,-4.1136,-4.1166,-4.1177,-4.105,-4.105,-4.105,0,-4.0384,-4.0467,-4.0492,-4.0551,-4.0586,-4.0596,-4.0655,-4.0689,-4.0757,-4.078,-4.0768,-4.088,-4.0914,-4.0999,-4.1019,-4.1042,-4.1059,-4.1037,-4.1126,-4.1134,-4.1141,-4.117,-4.1181,-4.1052,-4.1051,-4.1051,-4.1051,0,-4.0485,-4.0542,-4.0582,-4.0652,-4.0691,-4.0748,-4.0782,-4.0819,-4.083,-4.0856,-4.0929,-4.097,-4.103,-4.1051,-4.106,-4.1137,-4.1129,-4.1121,-4.1097,-4.1153,-4.118,-4.1191,-4.1054,-4.1053,-4.1053,-4.1052,0,0,-4.0548,-4.0633,-4.0648,-4.0681,-4.0744,-4.0788,-4.0847,-4.0908,-4.094,-4.0986,-4.1037,-4.1112,-4.1106,-4.114,-4.1154,-4.1192,-4.1255,-4.1179,-4.1181,-4.1193,-4.1344,-4.1351,-4.1364,-4.1256,-4.1258,-4.1259,-4.134,0,-4.0619,-4.0727,-4.0752,-4.0844,-4.0898,-4.091,-4.0961,-4.1005,-4.1031,-4.108,-4.1108,-4.1163,-4.1149,-4.117,-4.1208,-4.1239,-4.1285,-4.1233,-4.1303,-4.1305,-4.1292,-4.1378,-4.1385,-4.1459,-4.1351,-4.1353,-4.1354,0,-4.0716,-4.0769,-4.0867,-4.0926,-4.095,-4.0996,-4.1055,-4.1102,-4.1152,-4.1169,-4.1208,-4.1219,-4.1281,-4.1254,-4.1339,-4.1303,-4.1333,-4.1353,-4.1356,-4.1364,-4.1334,-4.139,-4.1483,-4.1495,-4.1371,-4.137,-4.1369,0,-4.0755,-4.085,-4.0922,-4.0949,-4.1019,-4.1052,-4.1082,-4.1132,-4.1167,-4.1218,-4.1242,-4.1298,-4.133,-4.1373,-4.1399,-4.1377,-4.1483,-4.1457,-4.1499,-4.1498,-4.1521,-4.1519,-4.1622,-4.1538,-4.1538,-4.1537,-4.1537,0,-4.0832,-4.0892,-4.0941,-4.0985,-4.1053,-4.1082,-4.1148,-4.1178,-4.1222,-4.1272,-4.1283,-4.133,-4.1361,-4.1411,-4.1432,-4.15,-4.1513,-4.1529,-4.1534,-4.1529,-4.1527,-4.1549,-4.1545,-4.154,-4.154,-4.1539,-4.1539,0,-4.0887,-4.0923,-4.1002,-4.1063,-4.108,-4.1128,-4.118,-4.1223,-4.125,-4.1313,-4.133,-4.1372,-4.1433,-4.1463,-4.1537,-4.1551,-4.1629,-4.163,-4.1613,-4.1615,-4.1655,-4.1652,-4.1777,-4.1796,-4.1697,-4.1698,-4.1699,0,-4.0935,-4.0982,-4.105,-4.1085,-4.1118,-4.1174,-4.1212,-4.1242,-4.128,-4.1343,-4.1379,-4.1441,-4.1492,-4.1587,-4.1624,-4.1681,-4.1684,-4.1725,-4.1693,-4.1687,-4.1687,-4.1685,-4.1691,-4.173,-4.1731,-4.1732,-4.1733,0,-4.1016,-4.1032,-4.1088,-4.115,-4.1196,-4.1245,-4.1294,-4.1322,-4.136,-4.1402,-4.1466,-4.1506,-4.1584,-4.1645,-4.1705,-4.1735,-4.1741,-4.1743,-4.1755,-4.1751,-4.1741,-4.1749,-4.163,-4.1739,-4.1739,-4.1738,-4.1738,-4.1738,-4.1071,-4.1114,-4.117,-4.1231,-4.1272,-4.1318,-4.1363,-4.1397,-4.1452,-4.1519,-4.1533,-4.1601,-4.1651,-4.1734,-4.1766,-4.1819,-4.181,-4.1828,-4.1833,-4.1837,-4.1841,-4.1732,-4.1829,-4.1829,-4.1829,-4.1829,-4.1829,0,-4.1155,-4.1192,-4.1248,-4.1318,-4.1367,-4.137,-4.1425,-4.1465,-4.1526,-4.1574,-4.1625,-4.1699,-4.1759,-4.1801,-4.1862,-4.1896,-4.1901,-4.1912,-4.191,-4.1917,-4.1844,-4.1828,-4.1907,-4.1907,-4.1907,-4.1907,-4.1907,-4.1907,-4.1204,-4.1279,-4.1302,-4.1397,-4.1433,-4.1502,-4.1533,-4.1576,-4.1615,-4.1698,-4.1749,-4.1777,-4.1823,-4.1888,-4.1944,-4.1955,-4.1977,-4.1989,-4.1999,-4.193,-4.1922,-4.1914,-4.1899,-4.1993,-4.1993,-4.2069,-4.207,-4.207]}]]